カタログに戻る

STARLINK-4010

運用中通信VLEO
NORAD 52862·PAYLOAD·🇺🇸 United States

打ち上げ Jun 17, 2022 から Cape Canaveral Space Force Station

Loading…

次のパス (今後24時間)

TLE

最新Source: CelesTrak SupGP

元期: Sep 15, 2026, 02:58 UTC

1 52862C 22062AJ  26258.12409722 -.00024358  00000+0 -71979-3 0  2582
2 52862  53.1577 238.7405 0001290  88.6500  94.8856 15.34397124    11

AllMySatでSTARLINK-4010をリアルタイム追跡

Download on the App Store